Time,TemperatureF,DewpointF,PressureIn,WindDirection,WindDirectionDegrees,WindSpeedMPH,WindSpeedGustMPH,Humidity,HourlyPrecipIn,Conditions,Clouds,dailyrainin,SoftwareType,DateUTC
2013-03-04 00:00:00,27.4,14.5,30.00,West,266,3.0,3.0,58,0.00,,,0.00,Wunderground v.1.15,2013-03-04 05:00:00,
2013-03-04 00:05:00,27.4,14.5,30.00,West,281,2.0,3.0,58,0.00,,,0.00,Wunderground v.1.15,2013-03-04 05:05:00,
2013-03-04 00:10:00,27.2,14.8,30.00,West,264,2.0,2.0,59,0.00,,,0.00,Wunderground v.1.15,2013-03-04 05:10:00,
2013-03-04 00:15:00,27.1,15.0,30.00,West,271,2.0,2.0,60,0.00,,,0.00,Wunderground v.1.15,2013-03-04 05:15:00,
2013-03-04 00:20:00,27.1,14.7,30.00,NW,305,2.0,2.0,59,0.00,,,0.00,Wunderground v.1.15,2013-03-04 05:20:00,
2013-03-04 00:25:00,27.3,14.5,30.00,West,263,3.0,5.0,58,0.00,,,0.00,Wunderground v.1.15,2013-03-04 05:25:00,
2013-03-04 00:35:00,27.3,14.5,30.00,WNW,299,5.0,5.0,58,0.00,,,0.00,Wunderground v.1.15,2013-03-04 05:35:00,
2013-03-04 00:40:00,27.3,14.8,30.00,West,278,5.0,5.0,59,0.00,,,0.00,Wunderground v.1.15,2013-03-04 05:40:00,
2013-03-04 00:45:00,27.1,15.0,30.00,West,270,4.0,5.0,60,0.00,,,0.00,Wunderground v.1.15,2013-03-04 05:45:00,
2013-03-04 00:50:00,27.0,14.9,30.01,West,269,5.0,6.0,60,0.00,,,0.00,Wunderground v.1.15,2013-03-04 05:50:00,
2013-03-04 00:55:00,26.8,15.1,30.01,NW,321,5.0,6.0,61,0.00,,,0.00,Wunderground v.1.15,2013-03-04 05:55:00,
2013-03-04 01:00:00,26.7,15.4,30.01,WNW,286,4.0,5.0,62,0.00,,,0.00,Wunderground v.1.15,2013-03-04 06:00:00,
2013-03-04 01:05:00,26.7,15.4,30.01,WNW,288,4.0,5.0,62,0.00,,,0.00,Wunderground v.1.15,2013-03-04 06:05:00,
2013-03-04 01:10:00,26.6,15.3,30.01,WNW,299,5.0,5.0,62,0.00,,,0.00,Wunderground v.1.15,2013-03-04 06:10:00,
2013-03-04 01:15:00,26.5,15.6,30.01,West,267,5.0,5.0,63,0.00,,,0.00,Wunderground v.1.15,2013-03-04 06:15:00,
2013-03-04 01:20:00,26.4,15.5,30.01,WNW,293,3.0,3.0,63,0.00,,,0.00,Wunderground v.1.15,2013-03-04 06:20:00,
2013-03-04 01:25:00,26.4,15.9,30.01,NW,316,2.0,3.0,64,0.00,,,0.00,Wunderground v.1.15,2013-03-04 06:25:00,
2013-03-04 01:30:00,26.5,15.6,30.01,West,270,3.0,3.0,63,0.00,,,0.00,Wunderground v.1.15,2013-03-04 06:30:00,
2013-03-04 01:40:00,26.3,15.8,30.01,West,278,2.0,2.0,64,0.00,,,0.00,Wunderground v.1.15,2013-03-04 06:40:00,
2013-03-04 01:45:00,26.2,15.3,30.01,WNW,284,2.0,2.0,63,0.00,,,0.00,Wunderground v.1.15,2013-03-04 06:45:00,
2013-03-04 01:50:00,26.2,15.3,30.01,WNW,285,2.0,2.0,63,0.00,,,0.00,Wunderground v.1.15,2013-03-04 06:50:00,
2013-03-04 01:55:00,26.0,15.1,30.01,West,278,1.0,2.0,63,0.00,,,0.00,Wunderground v.1.15,2013-03-04 06:55:00,
2013-03-04 02:00:00,25.8,14.9,30.01,WNW,293,1.0,1.0,63,0.00,,,0.00,Wunderground v.1.15,2013-03-04 07:00:00,
2013-03-04 02:05:00,25.7,14.5,30.01,WNW,286,1.0,2.0,62,0.00,,,0.00,Wunderground v.1.15,2013-03-04 07:05:00,
2013-03-04 02:10:00,25.7,14.5,30.01,WNW,284,2.0,2.0,62,0.00,,,0.00,Wunderground v.1.15,2013-03-04 07:10:00,
2013-03-04 02:15:00,25.7,14.5,30.01,West,273,3.0,3.0,62,0.00,,,0.00,Wunderground v.1.15,2013-03-04 07:15:00,
2013-03-04 02:20:00,25.7,14.5,30.01,WNW,292,3.0,5.0,62,0.00,,,0.00,Wunderground v.1.15,2013-03-04 07:20:00,
2013-03-04 02:25:00,25.7,14.1,30.01,WNW,295,3.0,5.0,61,0.00,,,0.00,Wunderground v.1.15,2013-03-04 07:25:00,
2013-03-04 02:30:00,25.8,14.2,30.01,West,274,3.0,3.0,61,0.00,,,0.00,Wunderground v.1.15,2013-03-04 07:30:00,
2013-03-04 02:35:00,25.7,14.1,30.00,NNW,336,3.0,5.0,61,0.00,,,0.00,Wunderground v.1.15,2013-03-04 07:35:00,
2013-03-04 02:40:00,25.8,13.8,30.00,NW,314,3.0,3.0,60,0.00,,,0.00,Wunderground v.1.15,2013-03-04 07:40:00,
2013-03-04 02:45:00,25.7,14.1,30.00,NW,314,3.0,3.0,61,0.00,,,0.00,Wunderground v.1.15,2013-03-04 07:45:00,
2013-03-04 02:50:00,25.7,14.1,30.00,NW,308,3.0,3.0,61,0.00,,,0.00,Wunderground v.1.15,2013-03-04 07:50:00,
2013-03-04 02:55:00,25.5,13.9,30.00,WNW,292,3.0,4.0,61,0.00,,,0.00,Wunderground v.1.15,2013-03-04 07:55:00,
2013-03-04 03:00:00,25.4,13.8,30.00,NW,311,3.0,3.0,61,0.00,,,0.00,Wunderground v.1.15,2013-03-04 08:00:00,
2013-03-04 03:05:00,25.4,14.2,30.01,West,270,4.0,4.0,62,0.00,,,0.00,Wunderground v.1.15,2013-03-04 08:05:00,
2013-03-04 03:10:00,25.4,14.2,30.00,WNW,290,3.0,3.0,62,0.00,,,0.00,Wunderground v.1.15,2013-03-04 08:10:00,
2013-03-04 03:15:00,25.3,14.1,30.00,WNW,292,3.0,3.0,62,0.00,,,0.00,Wunderground v.1.15,2013-03-04 08:15:00,
2013-03-04 03:20:00,25.4,14.2,30.01,West,269,5.0,6.0,62,0.00,,,0.00,Wunderground v.1.15,2013-03-04 08:20:00,
2013-03-04 03:25:00,25.4,14.2,30.01,WNW,297,5.0,6.0,62,0.00,,,0.00,Wunderground v.1.15,2013-03-04 08:25:00,
2013-03-04 03:30:00,25.4,13.8,30.01,WNW,297,4.0,4.0,61,0.00,,,0.00,Wunderground v.1.15,2013-03-04 08:30:00,
2013-03-04 03:35:00,25.4,14.2,30.01,WNW,284,4.0,4.0,62,0.00,,,0.00,Wunderground v.1.15,2013-03-04 08:35:00,
2013-03-04 03:40:00,25.3,14.1,30.01,West,269,3.0,3.0,62,0.00,,,0.00,Wunderground v.1.15,2013-03-04 08:40:00,
2013-03-04 03:45:00,25.2,14.0,30.01,NNW,338,2.0,3.0,62,0.00,,,0.00,Wunderground v.1.15,2013-03-04 08:45:00,
2013-03-04 03:50:00,25.1,13.9,30.01,NW,305,2.0,2.0,62,0.00,,,0.00,Wunderground v.1.15,2013-03-04 08:50:00,
2013-03-04 03:55:00,24.8,14.0,30.01,NW,305,2.0,2.0,63,0.00,,,0.00,Wunderground v.1.15,2013-03-04 08:55:00,
2013-03-04 04:00:00,24.7,13.9,30.01,NW,315,2.0,2.0,63,0.00,,,0.00,Wunderground v.1.15,2013-03-04 09:00:00,
2013-03-04 04:05:00,24.7,13.9,30.02,WNW,296,2.0,2.0,63,0.00,,,0.00,Wunderground v.1.15,2013-03-04 09:05:00,
2013-03-04 04:10:00,24.7,13.5,30.02,West,267,3.0,4.0,62,0.00,,,0.00,Wunderground v.1.15,2013-03-04 09:10:00,
2013-03-04 04:15:00,24.8,13.6,30.02,WNW,302,3.0,4.0,62,0.00,,,0.00,Wunderground v.1.15,2013-03-04 09:15:00,
2013-03-04 04:20:00,24.8,13.6,30.02,NW,325,3.0,3.0,62,0.00,,,0.00,Wunderground v.1.15,2013-03-04 09:20:00,
2013-03-04 04:25:00,24.6,13.8,30.02,WNW,285,2.0,3.0,63,0.00,,,0.00,Wunderground v.1.15,2013-03-04 09:25:00,
2013-03-04 04:30:00,24.5,13.3,30.02,NW,304,2.0,2.0,62,0.00,,,0.00,Wunderground v.1.15,2013-03-04 09:30:00,
2013-03-04 04:35:00,24.4,13.6,30.02,WNW,302,2.0,4.0,63,0.00,,,0.00,Wunderground v.1.15,2013-03-04 09:35:00,
2013-03-04 04:40:00,24.3,13.5,30.02,NW,314,2.0,2.0,63,0.00,,,0.00,Wunderground v.1.15,2013-03-04 09:40:00,
2013-03-04 04:44:00,24.2,13.4,30.02,NNW,336,2.0,2.0,63,0.00,,,0.00,Wunderground v.1.15,2013-03-04 09:44:00,
2013-03-04 04:49:00,24.0,13.2,30.02,NW,309,1.0,3.0,63,0.00,,,0.00,Wunderground v.1.15,2013-03-04 09:49:00,
2013-03-04 04:55:00,24.0,12.9,30.02,NW,314,1.0,3.0,62,0.00,,,0.00,Wunderground v.1.15,2013-03-04 09:55:00,
2013-03-04 05:00:00,23.9,13.1,30.03,West,278,1.0,1.0,63,0.00,,,0.00,Wunderground v.1.15,2013-03-04 10:00:00,
2013-03-04 05:05:00,23.6,13.2,30.03,West,269,1.0,1.0,64,0.00,,,0.00,Wunderground v.1.15,2013-03-04 10:05:00,
2013-03-04 05:10:00,23.6,12.8,30.03,NW,319,1.0,2.0,63,0.00,,,0.00,Wunderground v.1.15,2013-03-04 10:10:00,
2013-03-04 05:15:00,23.6,12.8,30.03,NNW,332,1.0,2.0,63,0.00,,,0.00,Wunderground v.1.15,2013-03-04 10:15:00,
2013-03-04 05:20:00,23.4,13.0,30.03,NW,311,1.0,1.0,64,0.00,,,0.00,Wunderground v.1.15,2013-03-04 10:20:00,
2013-03-04 05:25:00,23.3,12.6,30.03,West,274,1.0,2.0,63,0.00,,,0.00,Wunderground v.1.15,2013-03-04 10:25:00,
2013-03-04 05:30:00,23.2,12.8,30.04,NW,320,1.0,3.0,64,0.00,,,0.00,Wunderground v.1.15,2013-03-04 10:30:00,
2013-03-04 05:35:00,22.9,12.9,30.04,NNW,330,1.0,3.0,65,0.00,,,0.00,Wunderground v.1.15,2013-03-04 10:35:00,
2013-03-04 05:40:00,22.4,13.1,30.04,WNW,284,1.0,1.0,67,0.00,,,0.00,Wunderground v.1.15,2013-03-04 10:40:00,
2013-03-04 05:45:00,22.4,12.8,30.04,WNW,297,1.0,1.0,66,0.00,,,0.00,Wunderground v.1.15,2013-03-04 10:45:00,
2013-03-04 05:50:00,22.7,12.7,30.04,WNW,295,1.0,1.0,65,0.00,,,0.00,Wunderground v.1.15,2013-03-04 10:50:00,
2013-03-04 05:55:00,23.0,12.3,30.05,West,279,2.0,2.0,63,0.00,,,0.00,Wunderground v.1.15,2013-03-04 10:55:00,
2013-03-04 06:00:00,23.0,12.6,30.05,WNW,295,1.0,1.0,64,0.00,,,0.00,Wunderground v.1.15,2013-03-04 11:00:00,
2013-03-04 06:05:00,22.8,12.1,30.05,WNW,295,1.0,1.0,63,0.00,,,0.00,Wunderground v.1.15,2013-03-04 11:05:00,
2013-03-04 06:10:00,22.6,12.2,30.05,WNW,290,1.0,1.0,64,0.00,,,0.00,Wunderground v.1.15,2013-03-04 11:10:00,
2013-03-04 06:15:00,22.8,12.1,30.05,North,4,2.0,2.0,63,0.00,,,0.00,Wunderground v.1.15,2013-03-04 11:15:00,
2013-03-04 06:20:00,22.9,11.8,30.06,North,8,2.0,2.0,62,0.00,,,0.00,Wunderground v.1.15,2013-03-04 11:20:00,
2013-03-04 06:25:00,22.8,12.1,30.06,NNE,20,2.0,2.0,63,0.00,,,0.00,Wunderground v.1.15,2013-03-04 11:25:00,
2013-03-04 06:30:00,22.6,11.9,30.06,North,11,2.0,2.0,63,0.00,,,0.00,Wunderground v.1.15,2013-03-04 11:30:00,
2013-03-04 06:35:00,22.6,11.5,30.06,NNE,15,2.0,3.0,62,0.00,,,0.00,Wunderground v.1.15,2013-03-04 11:35:00,
2013-03-04 06:45:00,23.1,11.3,30.06,NNE,12,2.0,3.0,60,0.00,,,0.00,Wunderground v.1.15,2013-03-04 11:45:00,
2013-03-04 06:50:00,23.1,11.3,30.06,NNE,19,2.0,2.0,60,0.00,,,0.00,Wunderground v.1.15,2013-03-04 11:50:00,
2013-03-04 06:55:00,23.0,11.2,30.06,NNE,13,2.0,4.0,60,0.00,,,0.00,Wunderground v.1.15,2013-03-04 11:55:00,
2013-03-04 07:00:00,22.7,11.3,30.06,West,274,2.0,2.0,61,0.00,,,0.00,Wunderground v.1.15,2013-03-04 12:00:00,
2013-03-04 07:05:00,22.7,12.0,30.06,NW,309,2.0,2.0,63,0.00,,,0.00,Wunderground v.1.15,2013-03-04 12:05:00,
2013-03-04 07:10:00,22.8,11.7,30.07,NW,321,1.0,2.0,62,0.00,,,0.00,Wunderground v.1.15,2013-03-04 12:10:00,
2013-03-04 07:15:00,22.9,11.8,30.07,North,11,1.0,2.0,62,0.00,,,0.00,Wunderground v.1.15,2013-03-04 12:15:00,
2013-03-04 07:20:00,23.1,11.6,30.07,NE,49,1.0,2.0,61,0.00,,,0.00,Wunderground v.1.15,2013-03-04 12:20:00,
2013-03-04 07:25:00,23.6,11.7,30.07,ENE,78,1.0,2.0,60,0.00,,,0.00,Wunderground v.1.15,2013-03-04 12:25:00,
2013-03-04 07:30:00,24.7,12.4,30.07,ENE,78,0.0,0.0,59,0.00,,,0.00,Wunderground v.1.15,2013-03-04 12:30:00,
2013-03-04 07:35:00,25.3,12.2,30.07,WNW,298,0.0,1.0,57,0.00,,,0.00,Wunderground v.1.15,2013-03-04 12:35:00,
2013-03-04 07:40:00,25.3,12.6,30.08,West,266,1.0,4.0,58,0.00,,,0.00,Wunderground v.1.15,2013-03-04 12:40:00,
2013-03-04 07:50:00,25.7,12.6,30.08,West,273,3.0,3.0,57,0.00,,,0.00,Wunderground v.1.15,2013-03-04 12:50:00,
2013-03-04 07:55:00,26.0,12.8,30.08,West,266,3.0,4.0,57,0.00,,,0.00,Wunderground v.1.15,2013-03-04 12:55:00,
2013-03-04 08:00:00,26.2,13.0,30.08,West,277,4.0,4.0,57,0.00,,,0.00,Wunderground v.1.15,2013-03-04 13:00:00,
2013-03-04 08:05:00,26.5,13.7,30.08,West,267,4.0,4.0,58,0.00,,,0.00,Wunderground v.1.15,2013-03-04 13:05:00,
2013-03-04 08:10:00,26.6,12.2,30.08,WNW,287,5.0,7.0,54,0.00,,,0.00,Wunderground v.1.15,2013-03-04 13:10:00,
2013-03-04 08:15:00,26.7,12.3,30.08,WNW,285,6.0,7.0,54,0.00,,,0.00,Wunderground v.1.15,2013-03-04 13:15:00,
2013-03-04 08:20:00,27.1,13.5,30.08,WNW,293,4.0,4.0,56,0.00,,,0.00,Wunderground v.1.15,2013-03-04 13:20:00,
2013-03-04 08:25:00,27.2,12.7,30.08,WSW,245,5.0,5.0,54,0.00,,,0.00,Wunderground v.1.15,2013-03-04 13:25:00,
2013-03-04 08:30:00,27.3,12.4,30.08,WNW,288,6.0,6.0,53,0.00,,,0.00,Wunderground v.1.15,2013-03-04 13:30:00,
2013-03-04 08:35:00,27.5,12.6,30.08,West,269,5.0,6.0,53,0.00,,,0.00,Wunderground v.1.15,2013-03-04 13:35:00,
2013-03-04 08:40:00,27.8,12.4,30.08,WNW,288,5.0,5.0,52,0.00,,,0.00,Wunderground v.1.15,2013-03-04 13:40:00,
2013-03-04 08:45:00,28.1,12.7,30.08,WNW,288,5.0,5.0,52,0.00,,,0.00,Wunderground v.1.15,2013-03-04 13:45:00,
2013-03-04 08:50:00,28.4,12.6,30.08,NW,316,4.0,5.0,51,0.00,,,0.00,Wunderground v.1.15,2013-03-04 13:50:00,
2013-03-04 08:55:00,28.6,12.3,30.08,WSW,256,3.0,5.0,50,0.00,,,0.00,Wunderground v.1.15,2013-03-04 13:55:00,
2013-03-04 09:00:00,29.0,13.1,30.09,NW,311,4.0,4.0,51,0.00,,,0.00,Wunderground v.1.15,2013-03-04 14:00:00,
2013-03-04 09:05:00,29.0,11.7,30.08,West,280,5.0,5.0,48,0.00,,,0.00,Wunderground v.1.15,2013-03-04 14:05:00,
2013-03-04 09:10:00,29.2,12.4,30.09,WSW,239,4.0,4.0,49,0.00,,,0.00,Wunderground v.1.15,2013-03-04 14:10:00,
2013-03-04 09:15:00,29.5,13.1,30.09,NW,311,4.0,6.0,50,0.00,,,0.00,Wunderground v.1.15,2013-03-04 14:15:00,
2013-03-04 09:20:00,29.9,13.0,30.09,WSW,252,5.0,5.0,49,0.00,,,0.00,Wunderground v.1.15,2013-03-04 14:20:00,
2013-03-04 09:25:00,30.2,12.8,30.09,West,276,6.0,6.0,48,0.00,,,0.00,Wunderground v.1.15,2013-03-04 14:25:00,
2013-03-04 09:30:00,30.4,12.5,30.09,NNW,342,6.0,10.0,47,0.00,,,0.00,Wunderground v.1.15,2013-03-04 14:30:00,
2013-03-04 09:35:00,30.2,12.4,30.08,West,274,5.0,10.0,47,0.00,,,0.00,Wunderground v.1.15,2013-03-04 14:35:00,
2013-03-04 09:40:00,30.2,11.9,30.08,WSW,255,5.0,5.0,46,0.00,,,0.00,Wunderground v.1.15,2013-03-04 14:40:00,
2013-03-04 09:45:00,30.5,12.6,30.08,WNW,294,5.0,5.0,47,0.00,,,0.00,Wunderground v.1.15,2013-03-04 14:45:00,
2013-03-04 09:50:00,30.8,12.9,30.09,NW,314,4.0,9.0,47,0.00,,,0.00,Wunderground v.1.15,2013-03-04 14:50:00,
2013-03-04 09:55:00,31.0,12.6,30.08,WNW,295,5.0,9.0,46,0.00,,,0.00,Wunderground v.1.15,2013-03-04 14:55:00,
2013-03-04 10:00:00,31.6,14.1,30.08,North,349,4.0,4.0,48,0.00,,,0.00,Wunderground v.1.15,2013-03-04 15:00:00,
2013-03-04 10:05:00,31.9,13.4,30.08,NW,309,4.0,4.0,46,0.00,,,0.00,Wunderground v.1.15,2013-03-04 15:05:00,
2013-03-04 10:10:00,32.0,13.0,30.08,West,276,4.0,4.0,45,0.00,,,0.00,Wunderground v.1.15,2013-03-04 15:10:00,
2013-03-04 10:15:00,32.2,13.2,30.08,West,278,4.0,4.0,45,0.00,,,0.00,Wunderground v.1.15,2013-03-04 15:15:00,
2013-03-04 10:20:00,32.4,13.4,30.08,NW,310,4.0,6.0,45,0.00,,,0.00,Wunderground v.1.15,2013-03-04 15:20:00,
2013-03-04 10:25:00,32.4,13.9,30.08,West,269,4.0,6.0,46,0.00,,,0.00,Wunderground v.1.15,2013-03-04 15:25:00,
2013-03-04 10:30:00,32.9,14.8,30.08,WNW,297,4.0,4.0,47,0.00,,,0.00,Wunderground v.1.15,2013-03-04 15:30:00,
2013-03-04 10:35:00,33.3,13.7,30.08,WNW,300,6.0,6.0,44,0.00,,,0.00,Wunderground v.1.15,2013-03-04 15:35:00,
2013-03-04 10:40:00,33.0,13.4,30.08,NW,318,7.0,9.0,44,0.00,,,0.00,Wunderground v.1.15,2013-03-04 15:40:00,
2013-03-04 10:45:00,33.5,14.9,30.08,West,259,6.0,9.0,46,0.00,,,0.00,Wunderground v.1.15,2013-03-04 15:45:00,
2013-03-04 10:50:00,34.0,14.3,30.08,NNW,329,5.0,6.0,44,0.00,,,0.00,Wunderground v.1.15,2013-03-04 15:50:00,
2013-03-04 10:55:00,33.9,14.3,30.09,WNW,287,6.0,7.0,44,0.00,,,0.00,Wunderground v.1.15,2013-03-04 15:55:00,
2013-03-04 11:00:00,34.2,14.0,30.08,WNW,288,8.0,9.0,43,0.00,,,0.00,Wunderground v.1.15,2013-03-04 16:00:00,
2013-03-04 11:05:00,34.5,15.3,30.08,NW,307,7.0,9.0,45,0.00,,,0.00,Wunderground v.1.15,2013-03-04 16:05:00,
2013-03-04 11:10:00,34.5,14.8,30.08,NW,319,6.0,6.0,44,0.00,,,0.00,Wunderground v.1.15,2013-03-04 16:10:00,
2013-03-04 11:15:00,34.7,16.0,30.08,WNW,302,7.0,7.0,46,0.00,,,0.00,Wunderground v.1.15,2013-03-04 16:15:00,
2013-03-04 11:20:00,34.5,15.3,30.08,WNW,300,6.0,6.0,45,0.00,,,0.00,Wunderground v.1.15,2013-03-04 16:20:00,
2013-03-04 11:25:00,35.0,15.8,30.08,West,273,7.0,7.0,45,0.00,,,0.00,Wunderground v.1.15,2013-03-04 16:25:00,
2013-03-04 11:30:00,35.5,16.7,30.07,NW,319,7.0,10.0,46,0.00,,,0.00,Wunderground v.1.15,2013-03-04 16:30:00,
2013-03-04 11:35:00,35.4,16.1,30.07,NW,304,7.0,10.0,45,0.00,,,0.00,Wunderground v.1.15,2013-03-04 16:35:00,
2013-03-04 11:40:00,35.6,15.8,30.07,West,269,7.0,7.0,44,0.00,,,0.00,Wunderground v.1.15,2013-03-04 16:40:00,
2013-03-04 11:45:00,35.6,15.8,30.06,NW,306,6.0,7.0,44,0.00,,,0.00,Wunderground v.1.15,2013-03-04 16:45:00,
2013-03-04 11:50:00,35.6,15.8,30.06,North,349,5.0,7.0,44,0.00,,,0.00,Wunderground v.1.15,2013-03-04 16:50:00,
2013-03-04 11:55:00,35.7,16.4,30.06,NW,321,5.0,7.0,45,0.00,,,0.00,Wunderground v.1.15,2013-03-04 16:55:00,
2013-03-04 12:00:00,35.9,15.0,30.06,WSW,256,4.0,4.0,42,0.00,,,0.00,Wunderground v.1.15,2013-03-04 17:00:00,
2013-03-04 12:05:00,35.9,15.5,30.05,NW,312,3.0,4.0,43,0.00,,,0.00,Wunderground v.1.15,2013-03-04 17:05:00,
2013-03-04 12:10:00,36.7,16.3,30.05,North,1,3.0,3.0,43,0.00,,,0.00,Wunderground v.1.15,2013-03-04 17:10:00,
2013-03-04 12:15:00,36.9,15.9,30.05,WNW,302,3.0,3.0,42,0.00,,,0.00,Wunderground v.1.15,2013-03-04 17:15:00,
2013-03-04 12:20:00,37.3,16.8,30.05,SW,235,4.0,7.0,43,0.00,,,0.00,Wunderground v.1.15,2013-03-04 17:20:00,
2013-03-04 12:25:00,37.8,16.7,30.05,NW,316,4.0,7.0,42,0.00,,,0.00,Wunderground v.1.15,2013-03-04 17:25:00,
2013-03-04 12:30:00,37.9,16.3,30.04,North,351,4.0,9.0,41,0.00,,,0.00,Wunderground v.1.15,2013-03-04 17:30:00,
2013-03-04 12:35:00,38.3,17.7,30.04,NW,311,5.0,9.0,43,0.00,,,0.00,Wunderground v.1.15,2013-03-04 17:35:00,
2013-03-04 12:40:00,38.6,17.5,30.04,West,271,5.0,5.0,42,0.00,,,0.00,Wunderground v.1.15,2013-03-04 17:40:00,
2013-03-04 12:45:00,38.8,17.1,30.04,NW,314,5.0,6.0,41,0.00,,,0.00,Wunderground v.1.15,2013-03-04 17:45:00,
2013-03-04 12:50:00,38.9,16.6,30.03,WNW,293,4.0,4.0,40,0.00,,,0.00,Wunderground v.1.15,2013-03-04 17:50:00,
2013-03-04 12:55:00,39.1,16.8,30.04,NW,305,4.0,6.0,40,0.00,,,0.00,Wunderground v.1.15,2013-03-04 17:55:00,
2013-03-04 13:00:00,39.0,15.5,30.03,WSW,238,5.0,7.0,38,0.00,,,0.00,Wunderground v.1.15,2013-03-04 18:00:00,
2013-03-04 13:10:00,40.0,18.7,30.02,WNW,297,4.0,6.0,42,0.00,,,0.00,Wunderground v.1.15,2013-03-04 18:10:00,
2013-03-04 13:15:00,39.9,16.9,30.02,NW,307,5.0,8.0,39,0.00,,,0.00,Wunderground v.1.15,2013-03-04 18:15:00,
2013-03-04 13:20:00,39.9,16.9,30.02,WNW,302,6.0,6.0,39,0.00,,,0.00,Wunderground v.1.15,2013-03-04 18:20:00,
2013-03-04 13:25:00,40.3,17.3,30.02,West,276,5.0,6.0,39,0.00,,,0.00,Wunderground v.1.15,2013-03-04 18:25:00,
2013-03-04 13:30:00,40.8,17.7,30.02,WNW,302,4.0,4.0,39,0.00,,,0.00,Wunderground v.1.15,2013-03-04 18:30:00,
2013-03-04 13:35:00,41.1,16.8,30.02,NW,316,4.0,7.0,37,0.00,,,0.00,Wunderground v.1.15,2013-03-04 18:35:00,
2013-03-04 13:40:00,40.7,16.4,30.01,WNW,284,4.0,5.0,37,0.00,,,0.00,Wunderground v.1.15,2013-03-04 18:40:00,
2013-03-04 13:45:00,40.8,15.9,30.01,West,267,5.0,5.0,36,0.00,,,0.00,Wunderground v.1.15,2013-03-04 18:45:00,
2013-03-04 13:50:00,40.9,16.0,30.00,West,281,6.0,6.0,36,0.00,,,0.00,Wunderground v.1.15,2013-03-04 18:50:00,
2013-03-04 13:55:00,40.9,15.3,30.00,WSW,250,6.0,6.0,35,0.00,,,0.00,Wunderground v.1.15,2013-03-04 18:55:00,
2013-03-04 14:00:00,41.0,16.0,30.00,NW,317,5.0,5.0,36,0.00,,,0.00,Wunderground v.1.15,2013-03-04 19:00:00,
2013-03-04 14:05:00,41.5,15.8,30.00,West,267,5.0,5.0,35,0.00,,,0.00,Wunderground v.1.15,2013-03-04 19:05:00,
2013-03-04 14:10:00,41.4,15.1,30.00,WNW,294,4.0,5.0,34,0.00,,,0.00,Wunderground v.1.15,2013-03-04 19:10:00,
2013-03-04 14:15:00,41.3,16.3,30.00,WNW,293,4.0,5.0,36,0.00,,,0.00,Wunderground v.1.15,2013-03-04 19:15:00,
2013-03-04 14:20:00,41.6,15.9,30.00,NW,305,4.0,4.0,35,0.00,,,0.00,Wunderground v.1.15,2013-03-04 19:20:00,
2013-03-04 14:25:00,41.7,15.4,30.00,WNW,299,4.0,4.0,34,0.00,,,0.00,Wunderground v.1.15,2013-03-04 19:25:00,
2013-03-04 14:30:00,41.9,15.5,30.00,NNW,338,3.0,5.0,34,0.00,,,0.00,Wunderground v.1.15,2013-03-04 19:30:00,
2013-03-04 14:35:00,42.0,15.6,30.00,NW,316,4.0,8.0,34,0.00,,,0.00,Wunderground v.1.15,2013-03-04 19:35:00,
2013-03-04 14:40:00,41.8,14.8,30.00,NW,307,5.0,5.0,33,0.00,,,0.00,Wunderground v.1.15,2013-03-04 19:40:00,
2013-03-04 14:45:00,42.1,15.0,30.00,NNE,27,5.0,5.0,33,0.00,,,0.00,Wunderground v.1.15,2013-03-04 19:45:00,
2013-03-04 14:50:00,42.4,13.9,30.00,West,263,4.0,6.0,31,0.00,,,0.00,Wunderground v.1.15,2013-03-04 19:50:00,
2013-03-04 14:55:00,42.6,15.5,30.01,NW,321,4.0,6.0,33,0.00,,,0.00,Wunderground v.1.15,2013-03-04 19:55:00,
2013-03-04 15:00:00,43.3,14.6,30.00,West,262,4.0,4.0,31,0.00,,,0.00,Wunderground v.1.15,2013-03-04 20:00:00,
2013-03-04 15:05:00,43.8,15.1,30.01,West,271,5.0,5.0,31,0.00,,,0.00,Wunderground v.1.15,2013-03-04 20:05:00,
2013-03-04 15:10:00,43.6,14.2,30.01,WSW,245,6.0,6.0,30,0.00,,,0.00,Wunderground v.1.15,2013-03-04 20:10:00,
2013-03-04 15:15:00,43.4,13.2,30.01,NW,307,6.0,6.0,29,0.00,,,0.00,Wunderground v.1.15,2013-03-04 20:15:00,
2013-03-04 15:20:00,43.3,14.6,30.00,NNW,330,5.0,5.0,31,0.00,,,0.00,Wunderground v.1.15,2013-03-04 20:20:00,
2013-03-04 15:25:00,43.5,14.1,30.00,NNW,333,3.0,5.0,30,0.00,,,0.00,Wunderground v.1.15,2013-03-04 20:25:00,
2013-03-04 15:35:00,43.3,14.6,30.00,North,359,4.0,5.0,31,0.00,,,0.00,Wunderground v.1.15,2013-03-04 20:35:00,
2013-03-04 15:40:00,43.7,15.7,30.00,NW,315,4.0,5.0,32,0.00,,,0.00,Wunderground v.1.15,2013-03-04 20:40:00,
2013-03-04 15:45:00,43.5,13.3,30.00,North,355,3.0,5.0,29,0.00,,,0.00,Wunderground v.1.15,2013-03-04 20:45:00,
2013-03-04 15:50:00,43.6,14.2,30.00,West,269,3.0,3.0,30,0.00,,,0.00,Wunderground v.1.15,2013-03-04 20:50:00,
2013-03-04 15:55:00,44.2,14.7,30.00,West,274,3.0,8.0,30,0.00,,,0.00,Wunderground v.1.15,2013-03-04 20:55:00,
2013-03-04 16:00:00,44.1,13.8,30.00,NW,307,4.0,4.0,29,0.00,,,0.00,Wunderground v.1.15,2013-03-04 21:00:00,
2013-03-04 16:05:00,44.1,13.0,30.00,NNE,23,4.0,4.0,28,0.00,,,0.00,Wunderground v.1.15,2013-03-04 21:05:00,
2013-03-04 16:10:00,44.1,13.8,30.00,NW,326,3.0,3.0,29,0.00,,,0.00,Wunderground v.1.15,2013-03-04 21:10:00,
2013-03-04 16:15:00,44.3,14.8,30.00,NNE,27,3.0,3.0,30,0.00,,,0.00,Wunderground v.1.15,2013-03-04 21:15:00,
2013-03-04 16:20:00,44.4,13.3,30.00,West,269,4.0,5.0,28,0.00,,,0.00,Wunderground v.1.15,2013-03-04 21:20:00,
2013-03-04 16:25:00,44.8,15.2,30.00,West,259,4.0,5.0,30,0.00,,,0.00,Wunderground v.1.15,2013-03-04 21:25:00,
2013-03-04 16:30:00,44.5,14.9,30.00,NW,325,4.0,4.0,30,0.00,,,0.00,Wunderground v.1.15,2013-03-04 21:30:00,
2013-03-04 16:35:00,44.6,15.0,30.00,North,353,3.0,4.0,30,0.00,,,0.00,Wunderground v.1.15,2013-03-04 21:35:00,
2013-03-04 16:40:00,44.4,14.9,30.00,North,354,3.0,3.0,30,0.00,,,0.00,Wunderground v.1.15,2013-03-04 21:40:00,
2013-03-04 16:45:00,44.4,14.1,30.00,NW,324,3.0,3.0,29,0.00,,,0.00,Wunderground v.1.15,2013-03-04 21:45:00,
2013-03-04 16:49:00,44.7,15.1,30.00,West,278,3.0,4.0,30,0.00,,,0.00,Wunderground v.1.15,2013-03-04 21:49:00,
2013-03-04 16:54:00,44.5,14.2,30.00,WNW,295,4.0,4.0,29,0.00,,,0.00,Wunderground v.1.15,2013-03-04 21:54:00,
2013-03-04 17:00:00,44.4,14.9,30.00,WNW,289,4.0,4.0,30,0.00,,,0.00,Wunderground v.1.15,2013-03-04 22:00:00,
2013-03-04 17:05:00,44.3,14.8,30.00,NW,310,2.0,4.0,30,0.00,,,0.00,Wunderground v.1.15,2013-03-04 22:05:00,
2013-03-04 17:09:00,44.0,13.7,30.01,NW,323,3.0,3.0,29,0.00,,,0.00,Wunderground v.1.15,2013-03-04 22:09:00,
2013-03-04 17:14:00,43.8,15.1,30.01,NW,323,3.0,3.0,31,0.00,,,0.00,Wunderground v.1.15,2013-03-04 22:14:00,
2013-03-04 17:19:00,43.7,15.0,30.01,NW,314,3.0,4.0,31,0.00,,,0.00,Wunderground v.1.15,2013-03-04 22:19:00,
2013-03-04 17:24:00,43.3,14.6,30.01,NW,308,3.0,4.0,31,0.00,,,0.00,Wunderground v.1.15,2013-03-04 22:24:00,
2013-03-04 17:29:00,43.0,15.1,30.01,West,277,2.0,2.0,32,0.00,,,0.00,Wunderground v.1.15,2013-03-04 22:29:00,
2013-03-04 17:35:00,42.8,15.6,30.01,NNE,32,2.0,2.0,33,0.00,,,0.00,Wunderground v.1.15,2013-03-04 22:35:00,
2013-03-04 17:40:00,42.3,14.5,30.02,North,5,2.0,2.0,32,0.00,,,0.00,Wunderground v.1.15,2013-03-04 22:40:00,
2013-03-04 17:45:00,42.1,14.3,30.02,NNE,25,2.0,3.0,32,0.00,,,0.00,Wunderground v.1.15,2013-03-04 22:45:00,
2013-03-04 17:55:00,41.3,14.3,30.02,NNE,23,2.0,4.0,33,0.00,,,0.00,Wunderground v.1.15,2013-03-04 22:55:00,
2013-03-04 18:00:00,40.4,14.2,30.02,North,5,3.0,3.0,34,0.00,,,0.00,Wunderground v.1.15,2013-03-04 23:00:00,
2013-03-04 18:05:00,40.0,13.8,30.02,North,9,3.0,3.0,34,0.00,,,0.00,Wunderground v.1.15,2013-03-04 23:05:00,
2013-03-04 18:10:00,39.7,13.6,30.02,NE,55,3.0,3.0,34,0.00,,,0.00,Wunderground v.1.15,2013-03-04 23:10:00,
2013-03-04 18:15:00,39.5,14.7,30.02,NE,53,3.0,3.0,36,0.00,,,0.00,Wunderground v.1.15,2013-03-04 23:15:00,
2013-03-04 18:20:00,39.2,14.4,30.02,ENE,62,4.0,5.0,36,0.00,,,0.00,Wunderground v.1.15,2013-03-04 23:20:00,
2013-03-04 18:25:00,38.9,14.8,30.03,ENE,71,5.0,5.0,37,0.00,,,0.00,Wunderground v.1.15,2013-03-04 23:25:00,
2013-03-04 18:30:00,38.7,14.6,30.03,ENE,57,5.0,5.0,37,0.00,,,0.00,Wunderground v.1.15,2013-03-04 23:30:00,
2013-03-04 18:35:00,38.3,15.5,30.03,East,85,4.0,5.0,39,0.00,,,0.00,Wunderground v.1.15,2013-03-04 23:35:00,
2013-03-04 18:40:00,37.6,14.8,30.04,NE,55,2.0,3.0,39,0.00,,,0.00,Wunderground v.1.15,2013-03-04 23:40:00,
2013-03-04 18:45:00,37.5,15.3,30.05,East,87,1.0,3.0,40,0.00,,,0.00,Wunderground v.1.15,2013-03-04 23:45:00,
2013-03-04 18:50:00,37.0,14.9,30.05,NNE,26,1.0,2.0,40,0.00,,,0.00,Wunderground v.1.15,2013-03-04 23:50:00,
2013-03-04 18:55:00,37.1,15.0,30.05,ENE,57,2.0,2.0,40,0.00,,,0.00,Wunderground v.1.15,2013-03-04 23:55:00,
2013-03-04 19:00:00,36.9,14.8,30.05,NE,36,2.0,2.0,40,0.00,,,0.00,Wunderground v.1.15,2013-03-05 00:00:00,
2013-03-04 19:05:00,37.1,15.0,30.05,ENE,58,1.0,2.0,40,0.00,,,0.00,Wunderground v.1.15,2013-03-05 00:05:00,
2013-03-04 19:10:00,37.3,14.6,30.05,NE,53,1.0,3.0,39,0.00,,,0.00,Wunderground v.1.15,2013-03-05 00:10:00,
2013-03-04 19:15:00,37.6,14.2,30.06,NNW,335,2.0,3.0,38,0.00,,,0.00,Wunderground v.1.15,2013-03-05 00:15:00,
2013-03-04 19:20:00,37.6,14.2,30.06,NNE,32,2.0,3.0,38,0.00,,,0.00,Wunderground v.1.15,2013-03-05 00:20:00,
2013-03-04 19:25:00,37.2,14.5,30.06,NNW,346,3.0,3.0,39,0.00,,,0.00,Wunderground v.1.15,2013-03-05 00:25:00,
2013-03-04 19:30:00,36.5,15.6,30.06,NNE,13,2.0,2.0,42,0.00,,,0.00,Wunderground v.1.15,2013-03-05 00:30:00,
2013-03-04 19:35:00,36.4,14.3,30.06,NNW,346,2.0,2.0,40,0.00,,,0.00,Wunderground v.1.15,2013-03-05 00:35:00,
2013-03-04 19:40:00,36.6,15.1,30.06,NNW,332,2.0,2.0,41,0.00,,,0.00,Wunderground v.1.15,2013-03-05 00:40:00,
2013-03-04 19:45:00,36.5,15.6,30.06,NW,307,1.0,2.0,42,0.00,,,0.00,Wunderground v.1.15,2013-03-05 00:45:00,
2013-03-04 19:50:00,35.8,16.0,30.06,WNW,295,1.0,1.0,44,0.00,,,0.00,Wunderground v.1.15,2013-03-05 00:50:00,
2013-03-04 19:55:00,36.4,14.9,30.06,West,278,2.0,3.0,41,0.00,,,0.00,Wunderground v.1.15,2013-03-05 00:55:00,
2013-03-04 20:00:00,35.9,15.5,30.06,WNW,288,2.0,2.0,43,0.00,,,0.00,Wunderground v.1.15,2013-03-05 01:00:00,
2013-03-04 20:05:00,35.0,17.3,30.06,West,275,1.0,2.0,48,0.00,,,0.00,Wunderground v.1.15,2013-03-05 01:05:00,
2013-03-04 20:10:00,34.1,17.4,30.07,SSW,200,1.0,3.0,50,0.00,,,0.00,Wunderground v.1.15,2013-03-05 01:10:00,
2013-03-04 20:15:00,32.9,16.3,30.07,South,173,1.0,3.0,50,0.00,,,0.00,Wunderground v.1.15,2013-03-05 01:15:00,
2013-03-04 20:20:00,32.7,16.1,30.07,SW,215,1.0,1.0,50,0.00,,,0.00,Wunderground v.1.15,2013-03-05 01:20:00,
2013-03-04 20:25:00,32.5,15.9,30.08,WSW,242,1.0,1.0,50,0.00,,,0.00,Wunderground v.1.15,2013-03-05 01:25:00,
2013-03-04 20:30:00,32.3,15.7,30.08,WSW,252,1.0,1.0,50,0.00,,,0.00,Wunderground v.1.15,2013-03-05 01:30:00,
2013-03-04 20:35:00,31.5,16.3,30.07,West,259,1.0,2.0,53,0.00,,,0.00,Wunderground v.1.15,2013-03-05 01:35:00,
2013-03-04 20:45:00,29.8,15.6,30.07,West,267,1.0,1.0,55,0.00,,,0.00,Wunderground v.1.15,2013-03-05 01:45:00,
2013-03-04 20:50:00,29.6,16.2,30.07,West,263,0.0,0.0,57,0.00,,,0.00,Wunderground v.1.15,2013-03-05 01:50:00,
2013-03-04 20:55:00,29.1,15.7,30.07,West,277,1.0,1.0,57,0.00,,,0.00,Wunderground v.1.15,2013-03-05 01:55:00,
2013-03-04 21:00:00,28.8,15.9,30.07,ESE,122,1.0,1.0,58,0.00,,,0.00,Wunderground v.1.15,2013-03-05 02:00:00,
2013-03-04 21:05:00,28.6,16.1,30.07,ESE,121,1.0,1.0,59,0.00,,,0.00,Wunderground v.1.15,2013-03-05 02:05:00,
2013-03-04 21:10:00,28.3,16.6,30.07,ESE,122,0.0,0.0,61,0.00,,,0.00,Wunderground v.1.15,2013-03-05 02:10:00,
2013-03-04 21:15:00,28.3,16.6,30.07,ESE,121,0.0,1.0,61,0.00,,,0.00,Wunderground v.1.15,2013-03-05 02:15:00,
2013-03-04 21:20:00,28.3,17.3,30.07,NNW,338,1.0,1.0,63,0.00,,,0.00,Wunderground v.1.15,2013-03-05 02:20:00,
2013-03-04 21:25:00,28.3,17.7,30.07,NNW,336,1.0,1.0,64,0.00,,,0.00,Wunderground v.1.15,2013-03-05 02:25:00,
2013-03-04 21:34:00,27.7,17.1,30.07,ESE,112,1.0,2.0,64,0.00,,,0.00,Wunderground v.1.15,2013-03-05 02:34:00,
2013-03-04 21:39:00,28.0,17.0,30.07,WSW,245,1.0,1.0,63,0.00,,,0.00,Wunderground v.1.15,2013-03-05 02:39:00,
2013-03-04 21:44:00,27.6,17.0,30.07,West,276,1.0,2.0,64,0.00,,,0.00,Wunderground v.1.15,2013-03-05 02:44:00,
2013-03-04 21:49:00,27.3,16.7,30.07,WSW,255,1.0,1.0,64,0.00,,,0.00,Wunderground v.1.15,2013-03-05 02:49:00,
2013-03-04 21:59:00,26.8,16.6,30.08,West,270,1.0,1.0,65,0.00,,,0.00,Wunderground v.1.15,2013-03-05 02:59:00,
2013-03-04 22:04:00,26.3,16.8,30.08,SE,137,1.0,1.0,67,0.00,,,0.00,Wunderground v.1.15,2013-03-05 03:04:00,
2013-03-04 22:10:00,25.8,17.0,30.08,SE,137,0.0,1.0,69,0.00,,,0.00,Wunderground v.1.15,2013-03-05 03:10:00,
2013-03-04 22:15:00,25.8,17.0,30.08,WSW,238,0.0,1.0,69,0.00,,,0.00,Wunderground v.1.15,2013-03-05 03:15:00,
2013-03-04 22:20:00,25.8,17.0,30.08,WSW,238,1.0,1.0,69,0.00,,,0.00,Wunderground v.1.15,2013-03-05 03:20:00,
2013-03-04 22:25:00,25.8,17.4,30.08,WSW,239,0.0,1.0,70,0.00,,,0.00,Wunderground v.1.15,2013-03-05 03:25:00,
2013-03-04 22:30:00,25.8,17.4,30.08,West,269,0.0,1.0,70,0.00,,,0.00,Wunderground v.1.15,2013-03-05 03:30:00,
2013-03-04 22:35:00,25.8,17.7,30.08,West,269,1.0,1.0,71,0.00,,,0.00,Wunderground v.1.15,2013-03-05 03:35:00,
2013-03-04 22:40:00,25.7,18.2,30.08,WNW,288,1.0,1.0,73,0.00,,,0.00,Wunderground v.1.15,2013-03-05 03:40:00,
2013-03-04 22:45:00,25.8,17.7,30.08,WNW,288,0.0,1.0,71,0.00,,,0.00,Wunderground v.1.15,2013-03-05 03:45:00,
2013-03-04 22:50:00,25.7,17.9,30.08,WNW,288,0.0,0.0,72,0.00,,,0.00,Wunderground v.1.15,2013-03-05 03:50:00,
2013-03-04 22:55:00,25.8,18.0,30.08,WNW,285,0.0,0.0,72,0.00,,,0.00,Wunderground v.1.15,2013-03-05 03:55:00,
2013-03-04 23:00:00,26.0,17.9,30.09,SSW,194,0.0,1.0,71,0.00,,,0.00,Wunderground v.1.15,2013-03-05 04:00:00,
2013-03-04 23:04:00,25.9,18.1,30.09,SSW,205,0.0,1.0,72,0.00,,,0.00,Wunderground v.1.15,2013-03-05 04:04:00,
2013-03-04 23:09:00,25.8,18.3,30.09,SSW,205,0.0,0.0,73,0.00,,,0.00,Wunderground v.1.15,2013-03-05 04:09:00,
2013-03-04 23:14:00,25.6,18.5,30.09,SW,231,0.0,1.0,74,0.00,,,0.00,Wunderground v.1.15,2013-03-05 04:14:00,
2013-03-04 23:19:00,25.8,18.3,30.09,SW,231,0.0,0.0,73,0.00,,,0.00,Wunderground v.1.15,2013-03-05 04:19:00,
2013-03-04 23:25:00,25.5,18.7,30.09,WSW,252,1.0,1.0,75,0.00,,,0.00,Wunderground v.1.15,2013-03-05 04:25:00,
2013-03-04 23:30:00,25.2,18.7,30.09,West,262,1.0,1.0,76,0.00,,,0.00,Wunderground v.1.15,2013-03-05 04:30:00,
2013-03-04 23:35:00,25.3,18.5,30.09,West,261,1.0,1.0,75,0.00,,,0.00,Wunderground v.1.15,2013-03-05 04:35:00,
2013-03-04 23:40:00,25.2,18.4,30.09,West,262,0.0,0.0,75,0.00,,,0.00,Wunderground v.1.15,2013-03-05 04:40:00,
2013-03-04 23:45:00,25.2,18.4,30.09,West,261,0.0,0.0,75,0.00,,,0.00,Wunderground v.1.15,2013-03-05 04:45:00,
2013-03-04 23:55:00,25.4,18.6,30.09,West,262,0.0,0.0,75,0.00,,,0.00,Wunderground v.1.15,2013-03-05 04:55:00,